Location: Round Knob
(37.2473°N, 88.7376°W)
Time: 11:01:50
(UTC+00:00)

H-2A R/B - Pass Details

Date: 29 October 2020
Orbit: 577 x 656 km, 98.5° (Epoch: 04 December)

Event Time Altitude Azimuth Distance (km) Brightness Sun altitude
Rises 23:30:51 0° 1° (N) 2,823 5.3 -6.8°
Reaches altitude 10° 23:33:13 10° 350° (N) 1,910 4.6 -7.3°
Maximum altitude 23:36:48 29° 290° (WNW) 1,064 4.0 -8.0°
Drops below altitude 10° 23:40:21 10° 229° (SW) 1,883 5.6 -8.7°
Sets 23:42:40 0° 218° (SW) 2,777 6.2 -9.1°
